Year,Month,Day,Hour,Minute,Value (Times are PST for temperature in C)
2019,02,10,00,00,-6.10
2019,02,10,00,01,-6.10
2019,02,10,00,02,-6.10
2019,02,10,00,03,-6.20
2019,02,10,00,04,-6.20
2019,02,10,00,05,-6.20
2019,02,10,00,06,-6.20
2019,02,10,00,07,-6.20
2019,02,10,00,08,-6.20
2019,02,10,00,09,-6.20
2019,02,10,00,10,-6.20
2019,02,10,00,11,-6.20
2019,02,10,00,12,-6.20
2019,02,10,00,13,-6.20
2019,02,10,00,14,-6.20
2019,02,10,00,15,-6.20
2019,02,10,00,16,-6.20
2019,02,10,00,17,-6.20
2019,02,10,00,18,-6.20
2019,02,10,00,19,-6.20
2019,02,10,00,20,-6.20
2019,02,10,00,21,-6.30
2019,02,10,00,22,-6.30
2019,02,10,00,23,-6.30
2019,02,10,00,24,-6.30
2019,02,10,00,25,-6.30
2019,02,10,00,26,-6.30
2019,02,10,00,27,-6.30
2019,02,10,00,28,-6.30
2019,02,10,00,29,-6.30
2019,02,10,00,30,-6.30
2019,02,10,00,31,-6.30
2019,02,10,00,32,-6.30
2019,02,10,00,33,-6.30
2019,02,10,00,34,-6.30
2019,02,10,00,35,-6.30
2019,02,10,00,36,-6.30
2019,02,10,00,37,-6.30
2019,02,10,00,38,-6.30
2019,02,10,00,39,-6.30
2019,02,10,00,40,-6.30
2019,02,10,00,41,-6.30
2019,02,10,00,42,-6.30
2019,02,10,00,43,-6.30
2019,02,10,00,44,-6.30
2019,02,10,00,45,-6.30
2019,02,10,00,46,-6.30
2019,02,10,00,47,-6.30
2019,02,10,00,48,-6.30
2019,02,10,00,49,-6.30
2019,02,10,00,50,-6.30
2019,02,10,00,51,-6.30
2019,02,10,00,52,-6.40
2019,02,10,00,53,-6.40
2019,02,10,00,54,-6.40
2019,02,10,00,55,-6.40
2019,02,10,00,56,-6.50
2019,02,10,00,57,-6.50
2019,02,10,00,58,-6.50
2019,02,10,00,59,-6.60
2019,02,10,01,00,-6.60
2019,02,10,01,01,-6.60
2019,02,10,01,02,-6.60
2019,02,10,01,03,-6.70
2019,02,10,01,04,-6.70
2019,02,10,01,05,-6.70
2019,02,10,01,06,-6.80
2019,02,10,01,07,-6.80
2019,02,10,01,08,-6.80
2019,02,10,01,09,-6.80
2019,02,10,01,10,-6.90
2019,02,10,01,11,-6.90
2019,02,10,01,12,-6.90
2019,02,10,01,13,-6.90
2019,02,10,01,14,-6.90
2019,02,10,01,15,-6.90
2019,02,10,01,16,-6.90
2019,02,10,01,17,-6.90
2019,02,10,01,18,-6.90
2019,02,10,01,19,-6.90
2019,02,10,01,20,-6.90
2019,02,10,01,21,-6.90
2019,02,10,01,22,-6.90
2019,02,10,01,23,-6.90
2019,02,10,01,24,-6.90
2019,02,10,01,25,-6.90
2019,02,10,01,26,-6.90
2019,02,10,01,27,-6.90
2019,02,10,01,28,-6.90
2019,02,10,01,29,-6.90
2019,02,10,01,30,-6.90
2019,02,10,01,31,-6.90
2019,02,10,01,32,-6.90
2019,02,10,01,33,-6.90
2019,02,10,01,34,-6.90
2019,02,10,01,35,-7.00
2019,02,10,01,36,-7.00
2019,02,10,01,37,-7.00
2019,02,10,01,38,-7.00
2019,02,10,01,39,-7.00
2019,02,10,01,40,-7.00
2019,02,10,01,41,-7.10
2019,02,10,01,42,-7.10
2019,02,10,01,43,-7.10
2019,02,10,01,44,-7.10
2019,02,10,01,45,-7.10
2019,02,10,01,46,-7.10
2019,02,10,01,47,-7.20
2019,02,10,01,48,-7.20
2019,02,10,01,49,-7.20
2019,02,10,01,50,-7.20
2019,02,10,01,51,-7.20
2019,02,10,01,52,-7.20
2019,02,10,01,53,-7.20
2019,02,10,01,54,-7.20
2019,02,10,01,55,-7.20
2019,02,10,01,56,-7.20
2019,02,10,01,57,-7.20
2019,02,10,01,58,-7.20
2019,02,10,01,59,-7.20
2019,02,10,02,00,-7.20
2019,02,10,02,01,-7.20
2019,02,10,02,02,-7.20
2019,02,10,02,03,-7.20
2019,02,10,02,04,-7.20
2019,02,10,02,05,-7.20
2019,02,10,02,06,-7.20
2019,02,10,02,07,-7.20
2019,02,10,02,08,-7.20
2019,02,10,02,09,-7.10
2019,02,10,02,10,-7.10
2019,02,10,02,11,-7.10
2019,02,10,02,12,-7.10
2019,02,10,02,13,-7.10
2019,02,10,02,14,-7.10
2019,02,10,02,15,-7.10
2019,02,10,02,16,-7.10
2019,02,10,02,17,-7.10
2019,02,10,02,18,-7.10
2019,02,10,02,19,-7.10
2019,02,10,02,20,-7.20
2019,02,10,02,21,-7.20
2019,02,10,02,22,-7.20
2019,02,10,02,23,-7.20
2019,02,10,02,24,-7.20
2019,02,10,02,25,-7.20
2019,02,10,02,26,-7.20
2019,02,10,02,27,-7.20
2019,02,10,02,28,-7.20
2019,02,10,02,29,-7.20
2019,02,10,02,30,-7.20
2019,02,10,02,31,-7.30
2019,02,10,02,32,-7.30
2019,02,10,02,33,-7.30
2019,02,10,02,34,-7.30
2019,02,10,02,35,-7.30
2019,02,10,02,36,-7.40
2019,02,10,02,37,-7.40
2019,02,10,02,38,-7.40
2019,02,10,02,39,-7.40
2019,02,10,02,40,-7.50
2019,02,10,02,41,-7.60
2019,02,10,02,42,-7.60
2019,02,10,02,43,-7.60
2019,02,10,02,44,-7.70
2019,02,10,02,45,-7.70
2019,02,10,02,46,-7.70
2019,02,10,02,47,-7.70
2019,02,10,02,48,-7.70
2019,02,10,02,49,-7.70
2019,02,10,02,50,-7.70
2019,02,10,02,51,-7.70
2019,02,10,02,52,-7.70
2019,02,10,02,53,-7.70
2019,02,10,02,54,-7.70
2019,02,10,02,55,-7.70
2019,02,10,02,56,-7.70
2019,02,10,02,57,-7.70
2019,02,10,02,58,-7.70
2019,02,10,02,59,-7.70
2019,02,10,03,00,-7.80
2019,02,10,03,01,-7.80
2019,02,10,03,02,-7.80
2019,02,10,03,03,-7.80
2019,02,10,03,04,-7.80
2019,02,10,03,05,-7.80
2019,02,10,03,06,-7.80
2019,02,10,03,07,-7.80
2019,02,10,03,08,-7.80
2019,02,10,03,09,-7.80
2019,02,10,03,10,-7.80
2019,02,10,03,11,-7.80
2019,02,10,03,12,-7.80
2019,02,10,03,13,-7.80
2019,02,10,03,14,-7.80
2019,02,10,03,15,-7.80
2019,02,10,03,16,-7.80
2019,02,10,03,17,-7.90
2019,02,10,03,18,-7.90
2019,02,10,03,19,-7.90
2019,02,10,03,20,-7.90
2019,02,10,03,21,-8.00
2019,02,10,03,22,-8.00
2019,02,10,03,23,-8.00
2019,02,10,03,24,-8.00
2019,02,10,03,25,-8.10
2019,02,10,03,26,-8.10
2019,02,10,03,27,-8.10
2019,02,10,03,28,-8.10
2019,02,10,03,29,-8.10
2019,02,10,03,30,-8.10
2019,02,10,03,31,-8.10
2019,02,10,03,32,-8.10
2019,02,10,03,33,-8.10
2019,02,10,03,34,-8.10
2019,02,10,03,35,-8.10
2019,02,10,03,36,-8.10
2019,02,10,03,37,-8.10
2019,02,10,03,38,-8.10
2019,02,10,03,39,-8.10
2019,02,10,03,40,-8.10
2019,02,10,03,41,-8.10
2019,02,10,03,42,-8.20
2019,02,10,03,43,-8.20
2019,02,10,03,44,-8.20
2019,02,10,03,45,-8.20
2019,02,10,03,46,-8.20
2019,02,10,03,47,-8.20
2019,02,10,03,48,-8.20
2019,02,10,03,49,-8.20
2019,02,10,03,50,-8.30
2019,02,10,03,51,-8.20
2019,02,10,03,52,-8.20
2019,02,10,03,53,-8.20
2019,02,10,03,54,-8.30
2019,02,10,03,55,-8.30
2019,02,10,03,56,-8.30
2019,02,10,03,57,-8.30
2019,02,10,03,58,-8.30
2019,02,10,03,59,-8.30
2019,02,10,04,00,-8.30
2019,02,10,04,01,-8.30
2019,02,10,04,02,-8.30
2019,02,10,04,03,-8.30
2019,02,10,04,04,-8.30
2019,02,10,04,05,-8.30
2019,02,10,04,06,-8.30
2019,02,10,04,07,-8.30
2019,02,10,04,08,-8.30
2019,02,10,04,09,-8.30
2019,02,10,04,10,-8.30
2019,02,10,04,11,-8.30
2019,02,10,04,12,-8.30
2019,02,10,04,13,-8.30
2019,02,10,04,14,-8.30
2019,02,10,04,15,-8.40
2019,02,10,04,16,-8.40
2019,02,10,04,17,-8.30
2019,02,10,04,18,-8.30
2019,02,10,04,19,-8.30
2019,02,10,04,20,-8.30
2019,02,10,04,21,-8.40
2019,02,10,04,22,-8.40
2019,02,10,04,23,-8.40
2019,02,10,04,24,-8.40
2019,02,10,04,25,-8.40
2019,02,10,04,26,-8.40
2019,02,10,04,27,-8.50
2019,02,10,04,28,-8.50
2019,02,10,04,29,-8.50
2019,02,10,04,30,-8.50
2019,02,10,04,31,-8.50
2019,02,10,04,32,-8.50
2019,02,10,04,33,-8.50
2019,02,10,04,34,-8.50
2019,02,10,04,35,-8.50
2019,02,10,04,36,-8.50
2019,02,10,04,37,-8.50
2019,02,10,04,38,-8.50
2019,02,10,04,39,-8.50
2019,02,10,04,40,-8.50
2019,02,10,04,41,-8.50
2019,02,10,04,42,-8.50
2019,02,10,04,43,-8.50
2019,02,10,04,44,-8.60
2019,02,10,04,45,-8.60
2019,02,10,04,46,-8.60
2019,02,10,04,47,-8.60
2019,02,10,04,48,-8.60
2019,02,10,04,49,-8.60
2019,02,10,04,50,-8.70
2019,02,10,04,51,-8.70
2019,02,10,04,52,-8.70
2019,02,10,04,53,-8.70
2019,02,10,04,54,-8.70
2019,02,10,04,55,-8.70
2019,02,10,04,56,-8.70
2019,02,10,04,57,-8.70
2019,02,10,04,58,-8.70
2019,02,10,04,59,-8.70
2019,02,10,05,00,-8.70
2019,02,10,05,01,-8.70
2019,02,10,05,02,-8.70
2019,02,10,05,03,-8.70
2019,02,10,05,04,-8.70
2019,02,10,05,05,-8.70
2019,02,10,05,06,-8.70
2019,02,10,05,07,-8.80
2019,02,10,05,08,-8.70
2019,02,10,05,09,-8.70
2019,02,10,05,10,-8.70
2019,02,10,05,11,-8.70
2019,02,10,05,12,-8.70
2019,02,10,05,13,-8.70
2019,02,10,05,14,-8.70
2019,02,10,05,15,-8.70
2019,02,10,05,16,-8.70
2019,02,10,05,17,-8.80
2019,02,10,05,18,-8.80
2019,02,10,05,19,-8.80
2019,02,10,05,20,-8.80
2019,02,10,05,21,-8.80
2019,02,10,05,22,-8.80
2019,02,10,05,23,-8.80
2019,02,10,05,24,-8.80
2019,02,10,05,25,-8.70
2019,02,10,05,26,-8.70
2019,02,10,05,27,-8.70
2019,02,10,05,28,-8.70
2019,02,10,05,29,-8.70
2019,02,10,05,30,-8.60
2019,02,10,05,31,-8.60
2019,02,10,05,32,-8.60
2019,02,10,05,33,-8.50
2019,02,10,05,34,-8.50
2019,02,10,05,35,-8.40
2019,02,10,05,36,-8.40
2019,02,10,05,37,-8.40
2019,02,10,05,38,-8.40
2019,02,10,05,39,-8.40
2019,02,10,05,40,-8.30
2019,02,10,05,41,-8.30
2019,02,10,05,42,-8.30
2019,02,10,05,43,-8.30
2019,02,10,05,44,-8.30
2019,02,10,05,45,-8.30
2019,02,10,05,46,-8.30
2019,02,10,05,47,-8.40
2019,02,10,05,48,-8.40
2019,02,10,05,49,-8.40
2019,02,10,05,50,-8.40
2019,02,10,05,51,-8.50
2019,02,10,05,52,-8.50
2019,02,10,05,53,-8.50
2019,02,10,05,54,-8.50
2019,02,10,05,55,-8.50
2019,02,10,05,56,-8.50
2019,02,10,05,57,-8.50
2019,02,10,05,58,-8.50
2019,02,10,05,59,-8.50
2019,02,10,06,00,-8.50
2019,02,10,06,01,-8.60
2019,02,10,06,02,-8.60
2019,02,10,06,03,-8.60
2019,02,10,06,04,-8.60
2019,02,10,06,05,-8.70
2019,02,10,06,06,-8.70
2019,02,10,06,07,-8.70
2019,02,10,06,08,-8.70
2019,02,10,06,09,-8.70
2019,02,10,06,10,-8.70
2019,02,10,06,11,-8.70
2019,02,10,06,12,-8.70
2019,02,10,06,13,-8.70
2019,02,10,06,14,-8.70
2019,02,10,06,15,-8.70
2019,02,10,06,16,-8.70
2019,02,10,06,17,-8.80
2019,02,10,06,18,-8.80
2019,02,10,06,19,-8.80
2019,02,10,06,20,-8.80
2019,02,10,06,21,-8.90
2019,02,10,06,22,-8.90
2019,02,10,06,23,-8.90
2019,02,10,06,24,-8.90
2019,02,10,06,25,-8.90
2019,02,10,06,26,-8.90
2019,02,10,06,27,-8.90
2019,02,10,06,28,-8.90
2019,02,10,06,29,-8.90
2019,02,10,06,30,-8.90
2019,02,10,06,31,-8.90
2019,02,10,06,32,-9.00
2019,02,10,06,33,-9.00
2019,02,10,06,34,-9.10
2019,02,10,06,35,-9.10
2019,02,10,06,36,-9.10
2019,02,10,06,37,-9.10
2019,02,10,06,38,-9.20
2019,02,10,06,39,-9.20
2019,02,10,06,40,-9.20
2019,02,10,06,41,-9.20
2019,02,10,06,42,-9.20
2019,02,10,06,43,-9.20
2019,02,10,06,44,-9.20
2019,02,10,06,45,-9.20
2019,02,10,06,46,-9.20
2019,02,10,06,47,-9.30
2019,02,10,06,48,-9.30
2019,02,10,06,49,-9.30
2019,02,10,06,50,-9.30
2019,02,10,06,51,-9.30
2019,02,10,06,52,-9.30
2019,02,10,06,53,-9.30
2019,02,10,06,54,-9.30
2019,02,10,06,55,-9.30
2019,02,10,06,56,-9.30
2019,02,10,06,57,-9.30
2019,02,10,06,58,-9.40
2019,02,10,06,59,-9.40
2019,02,10,07,00,-9.40
2019,02,10,07,01,-9.40
2019,02,10,07,02,-9.40
2019,02,10,07,03,-9.40
2019,02,10,07,04,-9.40
2019,02,10,07,05,-9.40
2019,02,10,07,06,-9.40
2019,02,10,07,07,-9.40
2019,02,10,07,08,-9.40
2019,02,10,07,09,-9.40
2019,02,10,07,10,-9.40
2019,02,10,07,11,-9.30
2019,02,10,07,12,-9.40
2019,02,10,07,13,-9.40
2019,02,10,07,14,-9.40
2019,02,10,07,15,-9.40
2019,02,10,07,16,-9.40
2019,02,10,07,17,-9.40
2019,02,10,07,18,-9.40
2019,02,10,07,19,-9.40
2019,02,10,07,20,-9.40
2019,02,10,07,21,-9.40
2019,02,10,07,22,-9.40
2019,02,10,07,23,-9.40
2019,02,10,07,24,-9.40
2019,02,10,07,25,-9.40
2019,02,10,07,26,-9.30
2019,02,10,07,27,-9.30
2019,02,10,07,28,-9.30
2019,02,10,07,29,-9.30
2019,02,10,07,30,-9.30
2019,02,10,07,31,-9.30
2019,02,10,07,32,-9.30
2019,02,10,07,33,-9.30
2019,02,10,07,34,-9.30
2019,02,10,07,35,-9.30
2019,02,10,07,36,-9.40
2019,02,10,07,37,-9.40
2019,02,10,07,38,-9.40
2019,02,10,07,39,-9.40
2019,02,10,07,40,-9.40
2019,02,10,07,41,-9.40
2019,02,10,07,42,-9.40
2019,02,10,07,43,-9.40
2019,02,10,07,44,-9.40
2019,02,10,07,45,-9.40
2019,02,10,07,46,-9.40
2019,02,10,07,47,-9.40
2019,02,10,07,48,-9.40
2019,02,10,07,49,-9.40
2019,02,10,07,50,-9.40
2019,02,10,07,51,-9.40
2019,02,10,07,52,-9.40
2019,02,10,07,53,-9.40
2019,02,10,07,54,-9.40
2019,02,10,07,55,-9.30
2019,02,10,07,56,-9.30
2019,02,10,07,57,-9.20
2019,02,10,07,58,-9.20
2019,02,10,07,59,-9.10
2019,02,10,08,00,-9.00
2019,02,10,08,01,-8.90
2019,02,10,08,02,-8.90
2019,02,10,08,03,-8.80
2019,02,10,08,04,-8.80
2019,02,10,08,05,-8.80
2019,02,10,08,06,-8.80
2019,02,10,08,07,-8.80
2019,02,10,08,08,-8.80
2019,02,10,08,09,-8.80
2019,02,10,08,10,-8.70
2019,02,10,08,11,-8.70
2019,02,10,08,12,-8.70
2019,02,10,08,13,-8.60
2019,02,10,08,14,-8.60
2019,02,10,08,15,-8.60
2019,02,10,08,16,-8.60
2019,02,10,08,17,-8.60
2019,02,10,08,18,-8.60
2019,02,10,08,19,-8.60
2019,02,10,08,20,-8.60
2019,02,10,08,21,-8.50
2019,02,10,08,22,-8.50
2019,02,10,08,23,-8.50
2019,02,10,08,24,-8.40
2019,02,10,08,25,-8.40
2019,02,10,08,26,-8.40
2019,02,10,08,27,-8.40
2019,02,10,08,28,-8.30
2019,02,10,08,29,-8.30
2019,02,10,08,30,-8.20
2019,02,10,08,31,-8.20
2019,02,10,08,32,-8.10
2019,02,10,08,33,-8.00
2019,02,10,08,34,-7.90
2019,02,10,08,35,-7.90
2019,02,10,08,36,-7.80
2019,02,10,08,37,-7.70
2019,02,10,08,38,-7.70
2019,02,10,08,39,-7.60
2019,02,10,08,40,-7.50
2019,02,10,08,41,-7.30
2019,02,10,08,42,-7.20
2019,02,10,08,43,-7.20
2019,02,10,08,44,-7.10
2019,02,10,08,45,-7.00
2019,02,10,08,46,-6.90
2019,02,10,08,47,-6.80
2019,02,10,08,48,-6.80
2019,02,10,08,49,-6.70
2019,02,10,08,50,-6.70
2019,02,10,08,51,-6.70
2019,02,10,08,52,-6.60
2019,02,10,08,53,-6.60
2019,02,10,08,54,-6.50
2019,02,10,08,55,-6.40
2019,02,10,08,56,-6.40
2019,02,10,08,57,-6.30
2019,02,10,08,58,-6.20
2019,02,10,08,59,-6.10
2019,02,10,09,00,-6.00
2019,02,10,09,01,-6.00
2019,02,10,09,02,-6.00
2019,02,10,09,03,-5.90
2019,02,10,09,04,-5.90
2019,02,10,09,05,-5.80
2019,02,10,09,06,-5.80
2019,02,10,09,07,-5.80
2019,02,10,09,08,-5.80
2019,02,10,09,09,-5.80
2019,02,10,09,10,-5.80
2019,02,10,09,11,-5.70
2019,02,10,09,12,-5.70
2019,02,10,09,13,-5.70
2019,02,10,09,14,-5.70
2019,02,10,09,15,-5.70
2019,02,10,09,16,-5.60
2019,02,10,09,17,-5.60
2019,02,10,09,18,-5.50
2019,02,10,09,19,-5.50
2019,02,10,09,20,-5.50
2019,02,10,09,21,-5.40
2019,02,10,09,22,-5.40
2019,02,10,09,23,-5.40
2019,02,10,09,24,-5.30
2019,02,10,09,25,-5.30
2019,02,10,09,26,-5.30
2019,02,10,09,27,-5.30
2019,02,10,09,28,-5.40
2019,02,10,09,29,-5.40
2019,02,10,09,30,-5.40
2019,02,10,09,31,-5.30
2019,02,10,09,32,-5.40
2019,02,10,09,33,-5.40
2019,02,10,09,34,-5.40
2019,02,10,09,35,-5.40
2019,02,10,09,36,-5.30
2019,02,10,09,37,-5.30
2019,02,10,09,38,-5.30
2019,02,10,09,39,-5.30
2019,02,10,09,40,-5.30
2019,02,10,09,41,-5.30
2019,02,10,09,42,-5.20
2019,02,10,09,43,-5.20
2019,02,10,09,44,-5.20
2019,02,10,09,45,-5.10
2019,02,10,09,46,-5.10
2019,02,10,09,47,-5.10
2019,02,10,09,48,-5.10
2019,02,10,09,49,-5.00
2019,02,10,09,50,-5.00
2019,02,10,09,51,-4.90
2019,02,10,09,52,-4.90
2019,02,10,09,53,-4.90
2019,02,10,09,54,-4.90
2019,02,10,09,55,-4.90
2019,02,10,09,56,-4.80
2019,02,10,09,57,-4.80
2019,02,10,09,58,-4.80
2019,02,10,09,59,-4.70
2019,02,10,10,00,-4.70
2019,02,10,10,01,-4.70
2019,02,10,10,02,-4.70
2019,02,10,10,03,-4.60
2019,02,10,10,04,-4.60
2019,02,10,10,05,-4.60
2019,02,10,10,06,-4.60
2019,02,10,10,07,-4.60
2019,02,10,10,08,-4.60
2019,02,10,10,09,-4.60
2019,02,10,10,10,-4.60
2019,02,10,10,11,-4.50
2019,02,10,10,12,-4.50
2019,02,10,10,13,-4.40
2019,02,10,10,14,-4.40
2019,02,10,10,15,-4.40
2019,02,10,10,16,-4.30
2019,02,10,10,17,-4.30
2019,02,10,10,18,-4.30
2019,02,10,10,19,-4.30
2019,02,10,10,20,-4.20
2019,02,10,10,21,-4.20
2019,02,10,10,22,-4.20
2019,02,10,10,23,-4.20
2019,02,10,10,24,-4.10
2019,02,10,10,25,-4.10
2019,02,10,10,26,-4.10
2019,02,10,10,27,-4.00
2019,02,10,10,28,-4.00
2019,02,10,10,29,-3.90
2019,02,10,10,30,-3.90
2019,02,10,10,31,-3.90
2019,02,10,10,32,-3.80
2019,02,10,10,33,-3.80
2019,02,10,10,34,-3.80
2019,02,10,10,35,-3.80
2019,02,10,10,36,-3.80
2019,02,10,10,37,-3.70
2019,02,10,10,38,-3.70
2019,02,10,10,39,-3.70
2019,02,10,10,40,-3.70
2019,02,10,10,41,-3.70
2019,02,10,10,42,-3.70
2019,02,10,10,43,-3.60
2019,02,10,10,44,-3.60
2019,02,10,10,45,-3.60
2019,02,10,10,46,-3.60
2019,02,10,10,47,-3.50
2019,02,10,10,48,-3.50
2019,02,10,10,49,-3.40
2019,02,10,10,50,-3.40
2019,02,10,10,51,-3.30
2019,02,10,10,52,-3.30
2019,02,10,10,53,-3.20
2019,02,10,10,54,-3.10
2019,02,10,10,55,-3.10
2019,02,10,10,56,-3.00
2019,02,10,10,57,-3.00
2019,02,10,10,58,-2.90
2019,02,10,10,59,-2.90
2019,02,10,11,00,-2.90
2019,02,10,11,01,-2.90
2019,02,10,11,02,-2.90
2019,02,10,11,03,-2.90
2019,02,10,11,04,-2.90
2019,02,10,11,05,-2.90
2019,02,10,11,06,-2.90
2019,02,10,11,07,-2.90
2019,02,10,11,08,-2.90
2019,02,10,11,09,-2.90
2019,02,10,11,10,-2.90
2019,02,10,11,11,-2.90
2019,02,10,11,12,-2.90
2019,02,10,11,13,-2.90
2019,02,10,11,14,-2.80
2019,02,10,11,15,-2.80
2019,02,10,11,16,-2.80
2019,02,10,11,17,-2.80
2019,02,10,11,18,-2.70
2019,02,10,11,19,-2.70
2019,02,10,11,20,-2.60
2019,02,10,11,21,-2.60
2019,02,10,11,22,-2.60
2019,02,10,11,23,-2.60
2019,02,10,11,24,-2.50
2019,02,10,11,25,-2.50
2019,02,10,11,26,-2.40
2019,02,10,11,27,-2.40
2019,02,10,11,28,-2.40
2019,02,10,11,29,-2.40
2019,02,10,11,30,-2.40
2019,02,10,11,31,-2.30
2019,02,10,11,32,-2.30
2019,02,10,11,33,-2.30
2019,02,10,11,34,-2.20
2019,02,10,11,35,-2.20
2019,02,10,11,36,-2.10
2019,02,10,11,37,-2.10
2019,02,10,11,38,-2.00
2019,02,10,11,39,-1.90
2019,02,10,11,40,-1.90
2019,02,10,11,41,-1.80
2019,02,10,11,42,-1.80
2019,02,10,11,43,-1.80
2019,02,10,11,44,-1.70
2019,02,10,11,45,-1.70
2019,02,10,11,46,-1.70
2019,02,10,11,47,-1.70
2019,02,10,11,48,-1.70
2019,02,10,11,49,-1.70
2019,02,10,11,50,-1.60
2019,02,10,11,51,-1.60
2019,02,10,11,52,-1.60
2019,02,10,11,53,-1.60
2019,02,10,11,54,-1.50
2019,02,10,11,55,-1.50
2019,02,10,11,56,-1.50
2019,02,10,11,57,-1.40
2019,02,10,11,58,-1.40
2019,02,10,11,59,-1.40
2019,02,10,12,00,-1.40
2019,02,10,12,01,-1.30
2019,02,10,12,02,-1.30
2019,02,10,12,03,-1.30
2019,02,10,12,04,-1.30
2019,02,10,12,05,-1.30
2019,02,10,12,06,-1.20
2019,02,10,12,07,-1.20
2019,02,10,12,08,-1.20
2019,02,10,12,09,-1.20
2019,02,10,12,10,-1.20
2019,02,10,12,11,-1.20
2019,02,10,12,12,-1.20
2019,02,10,12,13,-1.20
2019,02,10,12,14,-1.30
2019,02,10,12,15,-1.30
2019,02,10,12,16,-1.30
2019,02,10,12,17,-1.30
2019,02,10,12,18,-1.30
2019,02,10,12,19,-1.40
2019,02,10,12,20,-1.40
2019,02,10,12,21,-1.40
2019,02,10,12,22,-1.40
2019,02,10,12,23,-1.40
2019,02,10,12,24,-1.30
2019,02,10,12,25,-1.30
2019,02,10,12,26,-1.30
2019,02,10,12,27,-1.20
2019,02,10,12,28,-1.20
2019,02,10,12,29,-1.20
2019,02,10,12,30,-1.20
2019,02,10,12,31,-1.20
2019,02,10,12,32,-1.20
2019,02,10,12,33,-1.10
2019,02,10,12,34,-1.10
2019,02,10,12,35,-1.10
2019,02,10,12,36,-1.10
2019,02,10,12,37,-1.10
2019,02,10,12,38,-1.10
2019,02,10,12,39,-1.00
2019,02,10,12,40,-1.00
2019,02,10,12,41,-1.00
2019,02,10,12,42,-0.90
2019,02,10,12,43,-0.90
2019,02,10,12,44,-0.90
2019,02,10,12,45,-0.90
2019,02,10,12,46,-0.90
2019,02,10,12,47,-0.80
2019,02,10,12,48,-0.80
2019,02,10,12,49,-0.80
2019,02,10,12,50,-0.80
2019,02,10,12,51,-0.80
2019,02,10,12,52,-0.70
2019,02,10,12,53,-0.70
2019,02,10,12,54,-0.70
2019,02,10,12,55,-0.60
2019,02,10,12,56,-0.60
2019,02,10,12,57,-0.60
2019,02,10,12,58,-0.60
2019,02,10,12,59,-0.60
2019,02,10,13,00,-0.50
2019,02,10,13,01,-0.50
2019,02,10,13,02,-0.50
2019,02,10,13,03,-0.50
2019,02,10,13,04,-0.50
2019,02,10,13,05,-0.50
2019,02,10,13,06,-0.50
2019,02,10,13,07,-0.50
2019,02,10,13,08,-0.50
2019,02,10,13,09,-0.40
2019,02,10,13,10,-0.40
2019,02,10,13,11,-0.40
2019,02,10,13,12,-0.40
2019,02,10,13,13,-0.30
2019,02,10,13,14,-0.30
2019,02,10,13,15,-0.30
2019,02,10,13,16,-0.20
2019,02,10,13,17,-0.20
2019,02,10,13,18,-0.20
2019,02,10,13,19,-0.20
2019,02,10,13,20,-0.20
2019,02,10,13,21,-0.20
2019,02,10,13,22,-0.10
2019,02,10,13,23,0.00
2019,02,10,13,24,0.10
2019,02,10,13,25,0.30
2019,02,10,13,26,0.40
2019,02,10,13,27,0.60
2019,02,10,13,28,0.70
2019,02,10,13,29,0.70
2019,02,10,13,30,0.80
2019,02,10,13,31,0.80
2019,02,10,13,32,0.70
2019,02,10,13,33,0.60
2019,02,10,13,34,0.60
2019,02,10,13,35,0.50
2019,02,10,13,36,0.50
2019,02,10,13,37,0.40
2019,02,10,13,38,0.40
2019,02,10,13,39,0.40
2019,02,10,13,40,0.40
2019,02,10,13,41,0.30
2019,02,10,13,42,0.20
2019,02,10,13,43,0.10
2019,02,10,13,44,0.10
2019,02,10,13,45,0.00
2019,02,10,13,46,0.00
2019,02,10,13,47,-0.10
2019,02,10,13,48,0.00
2019,02,10,13,49,-0.10
2019,02,10,13,50,0.00
2019,02,10,13,51,0.00
2019,02,10,13,52,0.00
2019,02,10,13,53,0.00
2019,02,10,13,54,0.00
2019,02,10,13,55,0.10
2019,02,10,13,56,0.10
2019,02,10,13,57,0.10
2019,02,10,13,58,0.10
2019,02,10,13,59,0.10
2019,02,10,14,00,0.20
2019,02,10,14,01,0.20
2019,02,10,14,02,0.20
2019,02,10,14,03,0.20
2019,02,10,14,04,0.20
2019,02,10,14,05,0.20
2019,02,10,14,06,0.20
2019,02,10,14,07,0.20
2019,02,10,14,08,0.20
2019,02,10,14,09,0.20
2019,02,10,14,10,0.20
2019,02,10,14,11,0.20
2019,02,10,14,12,0.20
2019,02,10,14,13,0.20
2019,02,10,14,14,0.20
2019,02,10,14,15,0.10
2019,02,10,14,16,0.10
2019,02,10,14,17,0.10
2019,02,10,14,18,0.00
2019,02,10,14,19,0.00
2019,02,10,14,20,0.00
2019,02,10,14,21,0.00
2019,02,10,14,22,-0.10
2019,02,10,14,23,-0.10
2019,02,10,14,24,-0.10
2019,02,10,14,25,-0.20
2019,02,10,14,26,-0.20
2019,02,10,14,27,-0.30
2019,02,10,14,28,-0.40
2019,02,10,14,29,-0.50
2019,02,10,14,30,-0.60
2019,02,10,14,31,-0.70
2019,02,10,14,32,-0.80
2019,02,10,14,33,-0.80
2019,02,10,14,34,-0.90
2019,02,10,14,35,-0.90
2019,02,10,14,36,-1.00
2019,02,10,14,37,-1.00
2019,02,10,14,38,-1.00
2019,02,10,14,39,-1.10
2019,02,10,14,40,-1.10
2019,02,10,14,41,-1.10
2019,02,10,14,42,-1.20
2019,02,10,14,43,-1.20
2019,02,10,14,44,-1.20
2019,02,10,14,45,-1.20
2019,02,10,14,46,-1.20
2019,02,10,14,47,-1.30
2019,02,10,14,48,-1.30
2019,02,10,14,49,-1.30
2019,02,10,14,50,-1.30
2019,02,10,14,51,-1.30
2019,02,10,14,52,-1.30
2019,02,10,14,53,-1.30
2019,02,10,14,54,-1.30
2019,02,10,14,55,-1.30
2019,02,10,14,56,-1.30
2019,02,10,14,57,-1.30
2019,02,10,14,58,-1.30
2019,02,10,14,59,-1.20
2019,02,10,15,00,-1.20
2019,02,10,15,01,-1.20
2019,02,10,15,02,-1.20
2019,02,10,15,03,-1.20
2019,02,10,15,04,-1.20
2019,02,10,15,05,-1.10
2019,02,10,15,06,-1.10
2019,02,10,15,07,-1.10
2019,02,10,15,08,-1.10
2019,02,10,15,09,-1.10
2019,02,10,15,10,-1.00
2019,02,10,15,11,-1.00
2019,02,10,15,12,-0.90
2019,02,10,15,13,-0.90
2019,02,10,15,14,-0.80
2019,02,10,15,15,-0.80
2019,02,10,15,16,-0.70
2019,02,10,15,17,-0.70
2019,02,10,15,18,-0.70
2019,02,10,15,19,-0.70
2019,02,10,15,20,-0.60
2019,02,10,15,21,-0.60
2019,02,10,15,22,-0.60
2019,02,10,15,23,-0.60
2019,02,10,15,24,-0.50
2019,02,10,15,25,-0.50
2019,02,10,15,26,-0.50
2019,02,10,15,27,-0.50
2019,02,10,15,28,-0.50
2019,02,10,15,29,-0.50
2019,02,10,15,30,-0.50
2019,02,10,15,31,-0.50
2019,02,10,15,32,-0.60
2019,02,10,15,33,-0.60
2019,02,10,15,34,-0.60
2019,02,10,15,35,-0.60
2019,02,10,15,36,-0.60
2019,02,10,15,37,-0.60
2019,02,10,15,38,-0.60
2019,02,10,15,39,-0.50
2019,02,10,15,40,-0.50
2019,02,10,15,41,-0.50
2019,02,10,15,42,-0.50
2019,02,10,15,43,-0.50
2019,02,10,15,44,-0.50
2019,02,10,15,45,-0.50
2019,02,10,15,46,-0.50
2019,02,10,15,47,-0.60
2019,02,10,15,48,-0.60
2019,02,10,15,49,-0.60
2019,02,10,15,50,-0.60
2019,02,10,15,51,-0.60
2019,02,10,15,52,-0.70
2019,02,10,15,53,-0.70
2019,02,10,15,54,-0.70
2019,02,10,15,55,-0.80
2019,02,10,15,56,-0.80
2019,02,10,15,57,-0.80
2019,02,10,15,58,-0.90
2019,02,10,15,59,-0.90
2019,02,10,16,00,-0.90
2019,02,10,16,01,-0.90
2019,02,10,16,02,-1.00
2019,02,10,16,03,-1.00
2019,02,10,16,04,-1.00
2019,02,10,16,05,-1.00
2019,02,10,16,06,-1.00
2019,02,10,16,07,-0.90
2019,02,10,16,08,-0.90
2019,02,10,16,09,-0.90
2019,02,10,16,10,-0.90
2019,02,10,16,11,-0.90
2019,02,10,16,12,-0.90
2019,02,10,16,13,-0.90
2019,02,10,16,14,-0.80
2019,02,10,16,15,-0.80
2019,02,10,16,16,-0.80
2019,02,10,16,17,-0.80
2019,02,10,16,18,-0.80
2019,02,10,16,19,-0.80
2019,02,10,16,20,-0.80
2019,02,10,16,21,-0.80
2019,02,10,16,22,-0.80
2019,02,10,16,23,-0.80
2019,02,10,16,24,-0.80
2019,02,10,16,25,-0.80
2019,02,10,16,26,-0.80
2019,02,10,16,27,-0.80
2019,02,10,16,28,-0.80
2019,02,10,16,29,-0.80
2019,02,10,16,30,-0.90
2019,02,10,16,31,-0.90
2019,02,10,16,32,-0.90
2019,02,10,16,33,-0.90
2019,02,10,16,34,-0.90
2019,02,10,16,35,-1.00
2019,02,10,16,36,-1.00
2019,02,10,16,37,-1.00
2019,02,10,16,38,-1.10
2019,02,10,16,39,-1.10
2019,02,10,16,40,-1.10
2019,02,10,16,41,-1.10
2019,02,10,16,42,-1.10
2019,02,10,16,43,-1.10
2019,02,10,16,44,-1.20
2019,02,10,16,45,-1.20
2019,02,10,16,46,-1.20
2019,02,10,16,47,-1.20
2019,02,10,16,48,-1.20
2019,02,10,16,49,-1.30
2019,02,10,16,50,-1.30
2019,02,10,16,51,-1.40
2019,02,10,16,52,-1.40
2019,02,10,16,53,-1.50
2019,02,10,16,54,-1.50
2019,02,10,16,55,-1.60
2019,02,10,16,56,-1.60
2019,02,10,16,57,-1.70
2019,02,10,16,58,-1.70
2019,02,10,16,59,-1.70
2019,02,10,17,00,-1.70
2019,02,10,17,01,-1.70
2019,02,10,17,02,-1.70
2019,02,10,17,03,-1.70
2019,02,10,17,04,-1.80
2019,02,10,17,05,-1.80
2019,02,10,17,06,-1.80
2019,02,10,17,07,-1.90
2019,02,10,17,08,-1.90
2019,02,10,17,09,-1.90
2019,02,10,17,10,-1.90
2019,02,10,17,11,-1.90
2019,02,10,17,12,-1.90
2019,02,10,17,13,-2.00
2019,02,10,17,14,-2.00
2019,02,10,17,15,-2.00
2019,02,10,17,16,-2.00
2019,02,10,17,17,-2.00
2019,02,10,17,18,-2.00
2019,02,10,17,19,-2.00
2019,02,10,17,20,-2.00
2019,02,10,17,21,-2.10